Location: Casilda
(33.0440°S, 61.1680°W)
Time: 21:19:59
(UTC-03:00)

ISS - Pass Details

Date: 29 January 2023
Orbit: 413 x 419 km, 51.6° (Epoch: 30 January)

Event Time Altitude Azimuth Distance (km) Brightness Sun altitude
Exits shadow 03:35:25 13° 178° (S) 1,350 -0.6 -29.3°
Drops below altitude 10° 03:36:03 10° 169° (S) 1,511 -0.2 -29.2°
Sets 03:38:40 0° 148° (SSE) 2,379 1.3 -28.9°
